FENGYUN 1C DEB

Satellite information

Favourite Embed

Satellite Type and Status

DEBRISIN ORBIT

Key statistics

Satellite FENGYUN 1C DEB at a glance.

Uptime

9554

Days in orbit

Revolutions

≈ 14.4

Per day

Orbit

SSO

Sun Synchronous Orbit

Inclination

98.9

Latest

Satellite identification and parameters

Extended collection of information and parameters for FENGYUN 1C DEB.

Object identification

Identified? True

Debris? True

Object name: FENGYUN 1C DEB

International designator: 1999-025EUD

Object number (NORAD): 38789

Object ID (CCSDS): 38789

Country: PEOPLES REPUBLIC OF CHINA (PRC)

Current information (Y/N): Y

RCS size: SMALL

Orbital parameters

Period: 99.678 minutes

Inclination: 98.8785 deg

SMA: 7121.31 km

Apoapsis: 893.062 km

Periapsis: 593.288 km

RAAN: 64.8403 deg

Eccentricy: 0.0210477

Argument of periapsis: 145.6854 deg

Mean anomaly: 232.0449 deg

Mean motion: 14.44650986 rev/day

Mean motion (dot): 0.00001741 rev/day2

B* drag term: 0.0003956 1/REarth

Two-line elements (TLE)

Creation date: July 5, 2025, 5:45 p.m.

Reference frame: TEME

Reference center: EARTH

Epoch: July 4, 2025, 10:24 p.m. UTC

TLE line 0: 0 FENGYUN 1C DEB

TLE line 1: 1 38789U 99025EUD 25185.93395300 .00001741 00000-0 39560-3 0 9992

TLE line 2: 2 38789 98.8785 64.8403 0210477 145.6854 232.0449 14.44650986595236

Live tracking on map

Real-time ground track for satellite FENGYUN 1C DEB.

In-orbit conjunctions

A list of the most updated potential collisions computed for object FENGYUN 1C DEB.

Target Orbit TCA Probability of collision Miss distance Type
FENGYUN 1C DEB SSO 2025-06-26 06:22:54 0.000139502 151.0 (m) DEBRIS
IRIDIUM 33 DEB LEO 2024-11-17 02:24:31 0.0002738604 858.0 (m) DEBRIS
COSMOS 2251 DEB LEO 2024-11-13 21:04:49 0.0001684791 825.0 (m) DEBRIS
CZ-6A DEB LEO 2024-10-11 06:27:01 0.000173716 475.0 (m) DEBRIS
CZ-4 DEB SSO 2024-09-27 20:48:57 0.0003132928 854.0 (m) DEBRIS

Associated space launch

Chinese polar orbiting meteorological satellite

FENGYUN 1C DEB was lifted into orbit during the mission ‘Long March 4B | Feng Yun 1C’, on board a Long March 4B space rocket.

The launch took place on May 10, 1999, 1:33 a.m. from Launch Complex 7.

For more information about the launch, click the button.

Launch to space Long March 4B | Feng Yun 1C
Long March 4B | Feng Yun 1C

Agency: N/A

Status: Launch Successful

Launch date: May 10, 1999, 1:33 a.m. UTC

Rocket: Long March 4B

Launch pad: Launch Complex 7

Location: Taiyuan Satellite Launch Center, People's Republic of China

...

Latest news about this satellite

There are no fresh news available about this satellite. Check back as we update our databases every day.


Newsletter sign-up

Weekly statistics, charts and insights to help you stay on top of the space industry.